Pine Bluff, AR

7:19 AM CDT on September 26, 2017 (GMT -0500)
Grider

Weather History for KPBF - May, 2013

Change the Weather History Date:

Friday, May 3, 2013

  Actual Average Record
Temperature  
Mean Temperature 46 °F 68 °F  
Max Temperature 52 °F 79 °F 92 °F (1952)
Min Temperature 40 °F 57 °F 40 °F (2013)
Degree Days  
Heating Degree Days 19 1  
Month to date heating degree days 23 4  
Since 1 July heating degree days 2919 2868  
Cooling Degree Days 0 4  
Month to date cooling degree days 2 12  
Year to date cooling degree days 65 99  
Moisture  
Dew Point 41 °F    
Average Humidity 74    
Maximum Humidity 93    
Minimum Humidity 54    
Precipitation  
Precipitation 0.07 in 0.18 in 2.80 in (1984)
Month to date precipitation 0.29 0.52  
Year to date precipitation 20.56 18.67  
Snow  
Snow 0.00 in 0.00 in - ()
Month to date snowfall 0.0 0.0  
Since 1 July snowfall 2.1 3.1  
Snow Depth 0.00 in    
Sea Level Pressure  
Sea Level Pressure 30.03 in    
Wind  
Wind Speed 10 mph (NW)    
Max Wind Speed 21 mph    
Max Gust Speed 29 mph    
Visibility 9 miles    
Events Rain    
T = Trace of Precipitation, MM = Missing Value Source: NWS Daily Summary

Daily Weather History Graph

Daily Weather History Graph

Search for Another Location

Airport or City:

Trip Planner

Search our weather history database for the weather conditions in past years. The results will help you decide how hot, cold, wet, or windy it might be!

Date:

Astronomy

May. 03, 2013 Rise Set
Actual Time 6:16 AM CDT 7:53 PM CDT
Civil Twilight 5:49 AM CDT 8:20 PM CDT
Nautical Twilight 5:16 AM CDT 8:52 PM CDT
Astronomical Twilight 4:42 AM CDT 9:27 PM CDT
Moon 2:23 AM CDT (5/3) 2:04 PM CDT (5/3)
Length of Visible Light 14h 31m
Length of Day
13h 37m
Last Quarter, 37% of the Moon is Illuminated
May 3
Last Quarter
May 9
New
May 17
First Quarter
May 24
Full
May 31
Last Quarter

Hourly Weather History & Observations

Time (CDT) Temp. Windchill Dew Point Humidity Pressure Visibility Wind Dir Wind Speed Gust Speed Precip Events Conditions
12:50 AM 53.6 °F - 50.0 °F 88% 30.05 in 10.0 mi NNW 19.6 mph 26.5 mph N/A   Overcast
12:53 AM 53.1 °F - 50.0 °F 89% 30.04 in 10.0 mi NNW 17.3 mph 26.5 mph N/A   Overcast
1:08 AM 51.8 °F - 50.0 °F 94% 30.04 in 10.0 mi NNW 16.1 mph 24.2 mph 0.00 in Rain Light Rain
1:53 AM 50.0 °F - 46.9 °F 89% 30.03 in 10.0 mi NNW 21.9 mph 28.8 mph 0.00 in   Overcast
2:53 AM 48.2 °F - 44.6 °F 87% 30.02 in 10.0 mi North 12.7 mph 23.0 mph N/A   Overcast
3:29 AM 46.4 °F 40.1 °F 44.6 °F 93% 30.02 in 3.0 mi NNW 15.0 mph - 0.03 in Rain Rain
3:53 AM 46.9 °F - 45.0 °F 93% 30.01 in 10.0 mi NW 17.3 mph 24.2 mph 0.05 in Rain Light Rain
4:07 AM 46.4 °F 40.4 °F 44.6 °F 93% 30.02 in 10.0 mi NW 13.8 mph 24.2 mph 0.00 in Rain Light Rain
4:53 AM 45.0 °F 40.1 °F 44.1 °F 97% 30.02 in 4.0 mi NW 9.2 mph - 0.00 in Rain Light Rain
5:39 AM 44.6 °F 38.8 °F 42.8 °F 93% 30.03 in 9.0 mi NNW 11.5 mph - 0.00 in   Overcast
5:53 AM 44.1 °F 37.7 °F 43.0 °F 96% 30.03 in 10.0 mi NW 12.7 mph - 0.00 in Rain Light Rain
6:10 AM 44.6 °F 38.1 °F 42.8 °F 93% 30.03 in 6.0 mi NNW 13.8 mph - 0.00 in Rain Light Rain
6:20 AM 44.6 °F 38.4 °F 41.0 °F 87% 30.03 in 10.0 mi NNW 12.7 mph 23.0 mph 0.00 in   Overcast
6:36 AM 44.6 °F 38.8 °F 42.8 °F 93% 30.03 in 5.0 mi NW 11.5 mph - 0.00 in Rain Light Rain
6:53 AM 43.0 °F 36.4 °F 42.1 °F 97% 30.03 in 3.0 mi NW 12.7 mph 17.3 mph 0.01 in Rain Light Rain
7:53 AM 42.1 °F 35.2 °F 39.9 °F 92% 30.04 in 6.0 mi NW 12.7 mph - 0.00 in Rain Light Rain
8:04 AM 42.8 °F 37.0 °F 39.2 °F 87% 30.04 in 4.0 mi NW 10.4 mph - 0.00 in   Overcast
8:53 AM 42.1 °F 34.9 °F 39.0 °F 89% 30.03 in 9.0 mi NW 13.8 mph - 0.00 in Rain Light Rain
9:02 AM 42.8 °F 36.2 °F 39.2 °F 87% 30.04 in 7.0 mi NW 12.7 mph - 0.00 in Rain Light Rain
9:16 AM 42.8 °F 37.0 °F 39.2 °F 87% 30.04 in 5.0 mi WNW 10.4 mph - 0.00 in Rain Light Rain
9:53 AM 42.1 °F 35.7 °F 39.9 °F 92% 30.04 in 10.0 mi WNW 11.5 mph - 0.00 in   Overcast
10:01 AM 42.8 °F 37.0 °F 39.2 °F 87% 30.05 in 10.0 mi WNW 10.4 mph - N/A   Overcast
10:11 AM 42.8 °F 35.8 °F 39.2 °F 87% 30.04 in 10.0 mi WNW 13.8 mph 20.7 mph 0.00 in Rain Light Rain
10:21 AM 42.8 °F 35.4 °F 39.2 °F 87% 30.05 in 9.0 mi WNW 15.0 mph 21.9 mph 0.01 in Rain Light Rain
10:40 AM 42.8 °F 35.4 °F 39.2 °F 87% 30.05 in 10.0 mi WNW 15.0 mph 20.7 mph 0.01 in Rain Light Rain
10:53 AM 43.0 °F 36.4 °F 39.0 °F 86% 30.05 in 10.0 mi WNW 12.7 mph 20.7 mph 0.01 in   Overcast
11:53 AM 42.1 °F 36.1 °F 39.0 °F 89% 30.06 in 10.0 mi West 10.4 mph - 0.00 in   Overcast
12:53 PM 43.0 °F 36.8 °F 37.9 °F 82% 30.04 in 10.0 mi WNW 11.5 mph - N/A   Overcast
1:53 PM 45.0 °F 38.5 °F 37.0 °F 74% 30.04 in 10.0 mi WNW 13.8 mph 24.2 mph N/A   Overcast
2:53 PM 46.0 °F 39.3 °F 37.0 °F 71% 30.04 in 10.0 mi WNW 16.1 mph 24.2 mph N/A   Overcast
3:53 PM 46.9 °F - 37.9 °F 71% 30.02 in 10.0 mi WNW 11.5 mph 20.7 mph N/A   Overcast
4:53 PM 51.1 °F - 39.0 °F 63% 30.01 in 10.0 mi NW 12.7 mph 19.6 mph N/A   Overcast
5:53 PM 52.0 °F - 37.9 °F 59% 30.01 in 10.0 mi NW 17.3 mph 21.9 mph N/A   Scattered Clouds
6:53 PM 52.0 °F - 36.0 °F 54% 30.00 in 10.0 mi NW 13.8 mph - N/A   Clear
7:53 PM 48.0 °F - 37.9 °F 68% 30.02 in 10.0 mi NNW 4.6 mph - N/A   Clear
8:53 PM 46.9 °F - 39.0 °F 74% 30.02 in 10.0 mi Calm Calm - N/A   Clear
9:53 PM 43.0 °F - 39.0 °F 86% 30.01 in 10.0 mi Calm Calm - N/A   Clear
10:53 PM 41.0 °F - 39.0 °F 93% 30.00 in 10.0 mi Calm Calm - N/A   Clear
11:53 PM 42.1 °F - 39.9 °F 92% 30.00 in - Calm Calm - N/A   Clear